User: anonymous   Login
Location: Juzet
(42.9779°N, 0.7597°E)
Time: 00:08:05
(UTC+00:00)
Language:

Okean 3 - Orbit

View from above orbital plane
View from above orbital plane
View from above satellite
View from above satellite

Ground track
Ground track

The orbit data is extracted from the following two-line orbital elements,

1 21397U 91039A   20273.53506856 +.00000310 +00000-0 +27313-4 0  9990
2 21397 082.5194 077.7576 0017866 176.5092 183.6256 14.92962056567799
Epoch (UTC): 29 September 2020 12:50:29
Eccentricity: 0.0017866
inclination: 82.5194°
perigee height: 576 km
apogee height: 601 km
right ascension of ascending node: 77.7576°
argument of perigee: 176.5092°
revolutions per day: 14.92962056
mean anomaly at epoch: 183.6256°
orbit number at epoch: 56779

The dashed part of the orbit path shows where the satellite is in the earth's shadow,  

DLR